[[{"header":{"parameterUnit":"m.s-1","parameterCategory":1,"la1":30.2991,"la2":30.254,"lo1":-89.0895,"lo2":-89.0444,"dy":0.0017,"dx":0.0017,"nx":28,"ny":28,"refTime":"2025-01-14T09:00:00:Z","depth":0,"parameterNumber":2,"parameterNumberName":"U-component_of_WINDS"},"data":[0,0,0,0,0,0,0,0,0,0,0,0,0,0,0,0,0,0,0,0,0,0,0,0,0,0,0,0,0,0,0,0,0,0,0,0,0,0,0,0,0,0,0,0,0,0,0,0,0,0,0,0,0,0,0,0,0,0,-1.5794,-1.5794,0,-1.578,-1.578,-1.578,-1.5684,-1.5681,-1.5679,-1.5677,-1.5665,-1.5667,-1.5669,0,0,0,0,0,0,0,0,0,0,0,0,0,-1.574,-1.5742,-1.5794,-1.5794,-1.5793,-1.578,-1.578,-1.578,-1.5684,-1.5681,-1.5679,-1.5676,-1.5665,-1.5667,-1.5669,0,0,0,0,0,0,0,0,0,0,0,0,0,-1.5749,-1.5742,-1.5794,-1.5744,-1.5739,-1.578,-1.578,-1.578,-1.5685,-1.5681,-1.5678,-1.5674,-1.5664,-1.5667,-1.5669,-1.5758,0,0,-1.5678,-1.5679,0,0,0,0,0,0,0,0,-1.5748,-1.5751,-1.5752,-1.5748,-1.5743,-1.573,-1.5757,-1.5772,-1.5686,-1.5706,-1.5677,-1.5673,-1.569,-1.569,-1.5696,-1.5757,-1.5757,-1.5678,-1.568,-1.5681,-1.5682,0,0,0,0,0,0,0,-1.5748,-1.5751,-1.5788,-1.5752,-1.5746,-1.5724,-1.5721,-1.5759,-1.5718,-1.5704,-1.5697,-1.5696,-1.5687,-1.5693,-1.5695,-1.5756,-1.5678,-1.5681,-1.5683,-1.5684,-1.5892,-1.5895,0,0,0,0,0,0,-1.5754,-1.5751,-1.5789,-1.5788,-1.5737,-1.5727,-1.5724,-1.5738,-1.5717,-1.5711,-1.5699,-1.5692,-1.569,-1.5691,-1.5694,-1.5797,-1.5681,-1.5684,-1.5686,-1.5888,-1.5893,-1.5897,0,0,0,0,0,0,-1.5753,-1.5758,-1.5789,-1.5768,-1.577,-1.5732,-1.5748,-1.5739,-1.5745,-1.5714,-1.5706,-1.5713,-1.5687,-1.569,-1.5743,-1.5795,-1.5685,-1.5688,-1.5883,-1.5889,-1.5895,-1.6004,0,0,0,0,0,0,-1.5752,-1.5758,-1.5791,-1.5769,-1.5771,-1.5838,-1.5751,-1.5742,-1.575,-1.5741,-1.5725,-1.5719,-1.5685,-1.5739,-1.5746,-1.5797,-1.569,-1.5878,-1.5886,-1.5893,-1.5996,-1.6013,-1.6027,0,0,0,0,0,-1.575,-1.5822,-1.5793,-1.5798,-1.5811,-1.5841,-1.5843,-1.5801,-1.5755,-1.5788,-1.5768,-1.5719,-1.5788,-1.5745,-1.5752,-1.5805,-1.5875,-1.5884,-1.5892,-1.5988,-1.6009,-1.6027,0,0,0,0,0,0,-1.5851,-1.5818,-1.5785,-1.5852,-1.585,-1.5825,-1.5865,-1.5824,-1.5836,-1.5826,-1.5775,-1.5772,-1.5834,-1.5824,-1.5777,-1.589,-1.5824,-1.5834,-1.5894,-1.5914,-1.593,-1.5931,-1.5692,0,0,0,0,0,-1.5881,-1.5908,-1.5878,-1.5939,-1.594,-1.5903,-1.5915,-1.5883,-1.5879,-1.5878,-1.5862,-1.5861,-1.5882,-1.5897,-1.5915,-1.5993,-1.599,-1.6033,-1.6049,-1.6063,-1.6073,-1.6115,-1.6135,-1.5925,-1.5925,-1.5925,0,0,-1.5943,-1.5929,-1.5949,-1.5959,-1.5954,-1.5984,-1.5903,-1.5938,-1.596,-1.5883,-1.5933,-1.5921,-1.5916,-1.5983,-1.6011,-1.5977,-1.613,-1.6074,-1.6085,-1.6087,-1.6126,-1.6146,-1.6164,-1.5931,-1.593,-1.5929,0,0,-1.6072,-1.6063,-1.6114,-1.6111,-1.6104,-1.6079,-1.6092,-1.6073,-1.6062,-1.6111,-1.6055,-1.6081,-1.6118,-1.6118,-1.6123,-1.6254,-1.621,-1.6261,-1.6345,-1.6387,-1.6404,-1.6418,-1.6466,-1.6484,-1.6271,-1.6271,-1.6271,0,-1.6151,-1.6193,-1.6146,-1.6185,-1.6192,-1.6124,-1.6177,-1.6176,-1.6176,-1.6183,-1.6144,-1.6191,-1.6183,-1.625,-1.6282,-1.6288,-1.6302,-1.6263,-1.6405,-1.6419,-1.6432,-1.6477,-1.6495,-1.6277,-1.6276,-1.6276,-1.6275,0,-1.6291,-1.6321,-1.6363,-1.6365,-1.6377,-1.6422,-1.6384,-1.6402,-1.637,-1.6349,-1.6401,-1.6389,-1.6404,-1.6417,-1.6386,-1.648,-1.6459,-1.6414,-1.6345,-1.6459,-1.6501,-1.6518,-1.6286,-1.6284,-1.6282,-1.628,0,0,-1.6482,-1.6458,-1.6475,-1.6476,-1.6464,-1.6487,-1.653,-1.6544,-1.6562,-1.6564,-1.66,-1.6634,-1.6593,-1.6598,-1.6566,-1.6603,-1.671,-1.6553,-1.6552,-1.6584,-1.6815,-1.6851,-1.6871,-1.6681,-1.6684,-1.6686,-1.6816,0,-1.6607,-1.6679,-1.664,-1.6718,-1.6746,-1.6683,-1.6721,-1.6718,-1.6701,-1.6723,-1.6704,-1.673,-1.6672,-1.6675,-1.6708,-1.669,-1.6756,-1.668,-1.6716,-1.6717,-1.672,-1.6893,-1.693,-1.7053,-1.6832,-1.6835,-1.6837,0,-1.6763,-1.6772,-1.6853,-1.6838,-1.6848,-1.6883,-1.6894,-1.6916,-1.6912,-1.6897,-1.6905,-1.6864,-1.6907,-1.6839,-1.6898,-1.6848,-1.686,-1.6853,-1.6857,-1.686,-1.6785,-1.6902,-1.7091,-1.711,-1.6862,-1.686,-1.6858,0,-1.6897,-1.693,-1.6983,-1.6985,-1.6968,-1.6994,-1.6988,-1.6981,-1.6993,-1.7003,-1.7011,-1.7026,-1.7034,-1.7048,-1.7013,-1.6967,-1.7078,-1.7007,-1.7068,-1.7069,-1.7095,-1.7094,-1.729,-1.7101,-1.7101,-1.71,-1.71,0,-1.7041,-1.7094,-1.7043,-1.7076,-1.7133,-1.7088,-1.7146,-1.7134,-1.7129,-1.7159,-1.7105,-1.7135,-1.7086,-1.7112,-1.7085,-1.714,-1.7143,-1.7133,-1.7126,-1.7139,-1.7141,-1.7147,-1.7138,-1.7105,-1.7104,-1.7103,-1.7102,0,-1.7201,-1.7169,-1.7223,-1.7202,-1.7198,-1.7242,-1.7225,-1.7255,-1.7234,-1.7274,-1.728,-1.7248,-1.7275,-1.7242,-1.7266,-1.7248,-1.7323,-1.7302,-1.7324,-1.7318,-1.7382,-1.7377,-1.759,-1.7617,-1.741,-1.7412,-1.7413,0,-1.7296,-1.7335,-1.7319,-1.7335,-1.7333,-1.7359,-1.7371,-1.7328,-1.7343,-1.7344,-1.7375,-1.7397,-1.7413,-1.746,-1.744,-1.7458,-1.7438,-1.7512,-1.7441,-1.7453,-1.7441,-1.744,-1.7445,-1.7527,-1.7529,-1.7531,-1.7533,0,-1.7468,-1.7451,-1.747,-1.7484,-1.75,-1.751,-1.7515,-1.7532,-1.7487,-1.7507,-1.7534,-1.7547,-1.7572,-1.7596,-1.7609,-1.7604,-1.7562,-1.7555,-1.7571,-1.7585,-1.7597,-1.7593,-1.7365,-1.7551,-1.7549,-1.7548,-1.7547,-1.7546,-1.7599,-1.7632,-1.7626,-1.765,-1.7649,-1.7656,-1.7684,-1.7667,-1.7689,-1.7706,-1.7679,-1.7714,-1.7711,-1.7725,-1.7725,-1.7752,-1.7721,-1.7743,-1.7749,-1.7755,-1.7766,-1.7592,-1.7754,-1.7754,-1.7753,-1.7753,-1.7752,0,-1.777,-1.7764,-1.7786,-1.7795,-1.7815,-1.7773,-1.7777,-1.7796,-1.7827,-1.7828,-1.7845,-1.7878,-1.7901,-1.7883,-1.7902,-1.7928,-1.791,-1.7935,-1.7933,-1.7933,-1.7792,-1.7777,-1.795,-1.795,-1.795,-1.795,-1.795,-1.795,-1.7861,-1.7915,-1.7897,-1.795,-1.7943,-1.7977,-1.7983,-1.799,-1.799,-1.8029,-1.8048,-1.8036,-1.8029,-1.8048,-1.8069,-1.8063,-1.8073,-1.8106,-1.8094,-1.7962,-1.7943,-1.7924,-1.791,-1.8108,-1.8108,-1.8232,-1.8234,-1.8235]},{"header":{"parameterUnit":"m.s-1","parameterCategory":1,"la1":30.2991,"la2":30.254,"lo1":-89.0895,"lo2":-89.0444,"dy":0.0017,"dx":0.0017,"nx":28,"ny":28,"refTime":"2025-01-14T09:00:00:Z","depth":0,"parameterNumber":3,"parameterNumberName":"V-component_of_WINDS"},"data":[0,0,0,0,0,0,0,0,0,0,0,0,0,0,0,0,0,0,0,0,0,0,0,0,0,0,0,0,0,0,0,0,0,0,0,0,0,0,0,0,0,0,0,0,0,0,0,0,0,0,0,0,0,0,0,0,0,0,-4.919,-4.919,0,-4.919,-4.919,-4.919,-4.9085,-4.9082,-4.9079,-4.9077,-4.9075,-4.9078,-4.908,0,0,0,0,0,0,0,0,0,0,0,0,0,-4.9099,-4.9101,-4.919,-4.919,-4.919,-4.919,-4.919,-4.919,-4.9085,-4.9082,-4.9079,-4.9075,-4.9074,-4.9077,-4.908,0,0,0,0,0,0,0,0,0,0,0,0,0,-4.9122,-4.9102,-4.919,-4.9138,-4.9133,-4.919,-4.919,-4.919,-4.9086,-4.9082,-4.9078,-4.9074,-4.9073,-4.9077,-4.9081,-4.9187,0,0,-4.9092,-4.9094,0,0,0,0,0,0,0,0,-4.9121,-4.9126,-4.9146,-4.9142,-4.9137,-4.9133,-4.9157,-4.9189,-4.9087,-4.9104,-4.9077,-4.9072,-4.9098,-4.9099,-4.9108,-4.9187,-4.9187,-4.9093,-4.9095,-4.9097,-4.9098,0,0,0,0,0,0,0,-4.912,-4.9125,-4.919,-4.9146,-4.9141,-4.9114,-4.9113,-4.9162,-4.9124,-4.9102,-4.9095,-4.9096,-4.9094,-4.9105,-4.9107,-4.9187,-4.9092,-4.9096,-4.9098,-4.91,-4.935,-4.9354,0,0,0,0,0,0,-4.9125,-4.9125,-4.919,-4.919,-4.9119,-4.9119,-4.9118,-4.9138,-4.9123,-4.9117,-4.9099,-4.9091,-4.91,-4.9103,-4.9107,-4.9229,-4.9096,-4.91,-4.9102,-4.9346,-4.9351,-4.9356,0,0,0,0,0,0,-4.9124,-4.9132,-4.919,-4.9155,-4.9161,-4.9125,-4.9149,-4.9141,-4.9151,-4.9121,-4.9114,-4.9117,-4.9097,-4.9102,-4.9167,-4.9227,-4.9102,-4.9105,-4.9341,-4.9348,-4.9354,-4.9475,0,0,0,0,0,0,-4.9122,-4.9132,-4.9173,-4.9157,-4.9163,-4.9252,-4.9153,-4.9144,-4.9158,-4.9147,-4.9136,-4.913,-4.9094,-4.9162,-4.9171,-4.923,-4.9108,-4.9335,-4.9344,-4.9352,-4.9465,-4.9485,-4.9501,0,0,0,0,0,-4.9119,-4.9207,-4.9176,-4.9184,-4.9213,-4.9255,-4.9259,-4.9216,-4.9163,-4.9203,-4.9184,-4.913,-4.922,-4.917,-4.9179,-4.924,-4.9331,-4.9341,-4.9351,-4.9457,-4.9481,-4.9501,0,0,0,0,0,0,-4.9231,-4.9204,-4.9169,-4.9255,-4.9258,-4.9238,-4.9287,-4.9243,-4.9261,-4.925,-4.9196,-4.9194,-4.9268,-4.9261,-4.9206,-4.9341,-4.9266,-4.9278,-4.9343,-4.9366,-4.9383,-4.9383,-4.9111,0,0,0,0,0,-4.9266,-4.9303,-4.9277,-4.9356,-4.9359,-4.9323,-4.934,-4.9307,-4.9308,-4.9309,-4.9294,-4.9297,-4.9325,-4.9345,-4.937,-4.9464,-4.9459,-4.951,-4.9528,-4.9543,-4.9554,-4.9602,-4.9624,-4.9388,-4.9388,-4.9388,0,0,-4.9338,-4.9328,-4.9355,-4.9378,-4.9377,-4.9415,-4.9325,-4.937,-4.9398,-4.9315,-4.9376,-4.9366,-4.9365,-4.9445,-4.948,-4.9441,-4.9618,-4.9556,-4.9568,-4.9571,-4.9614,-4.9637,-4.9657,-4.9395,-4.9394,-4.9393,0,0,-4.9489,-4.9486,-4.955,-4.955,-4.9549,-4.9525,-4.954,-4.9526,-4.9516,-4.9576,-4.9515,-4.9547,-4.9597,-4.9599,-4.9607,-4.9758,-4.9709,-4.9767,-4.9861,-4.9909,-4.9927,-4.9943,-4.9996,-5.0016,-4.9778,-4.9779,-4.9779,0,-4.9579,-4.9636,-4.9589,-4.9638,-4.9649,-4.9576,-4.964,-4.9642,-4.965,-4.9659,-4.9616,-4.9677,-4.9671,-4.975,-4.9787,-4.9796,-4.9811,-4.9768,-4.9928,-4.9944,-4.9958,-5.0008,-5.0028,-4.9786,-4.9785,-4.9784,-4.9783,0,-4.9745,-4.9786,-4.9837,-4.9846,-4.9863,-4.992,-4.988,-4.9903,-4.9869,-4.9848,-4.991,-4.9901,-4.9922,-4.9938,-4.9905,-5.0012,-4.9988,-4.9938,-4.9861,-4.9989,-5.0035,-5.0053,-4.9796,-4.9793,-4.9791,-4.9789,0,0,-4.9968,-4.9949,-4.9969,-4.9971,-4.9964,-4.9994,-5.0047,-5.0067,-5.0087,-5.0095,-5.0137,-5.0181,-5.0134,-5.0142,-5.0108,-5.015,-5.0269,-5.0094,-5.0093,-5.0126,-5.0386,-5.0423,-5.0446,-5.0237,-5.024,-5.0243,-5.0385,0,-5.0113,-5.0202,-5.0161,-5.0254,-5.029,-5.022,-5.0266,-5.0266,-5.0248,-5.0276,-5.0255,-5.0287,-5.0223,-5.0228,-5.0266,-5.0247,-5.032,-5.0236,-5.0275,-5.0277,-5.0276,-5.047,-5.051,-5.0645,-5.0403,-5.0406,-5.0408,0,-5.0295,-5.031,-5.0407,-5.0392,-5.0405,-5.0447,-5.0462,-5.0489,-5.0488,-5.0472,-5.0481,-5.0437,-5.0487,-5.0411,-5.0479,-5.0422,-5.0435,-5.0428,-5.0432,-5.0434,-5.035,-5.0476,-5.0687,-5.0708,-5.0436,-5.0434,-5.0432,0,-5.0446,-5.049,-5.0553,-5.0558,-5.0542,-5.0573,-5.0568,-5.0563,-5.0577,-5.059,-5.0599,-5.0618,-5.0628,-5.0643,-5.0605,-5.0554,-5.0678,-5.0599,-5.0665,-5.0666,-5.0694,-5.0693,-5.0909,-5.0704,-5.0704,-5.0704,-5.0703,0,-5.0612,-5.0674,-5.0621,-5.066,-5.0726,-5.0678,-5.0745,-5.0733,-5.0728,-5.0763,-5.0704,-5.0738,-5.0686,-5.0714,-5.0685,-5.0745,-5.075,-5.0738,-5.0729,-5.0743,-5.0745,-5.0751,-5.074,-5.0709,-5.0708,-5.0707,-5.0706,0,-5.0792,-5.0759,-5.0823,-5.0803,-5.08,-5.085,-5.0832,-5.0867,-5.0845,-5.089,-5.0897,-5.0863,-5.0893,-5.0857,-5.0885,-5.0865,-5.0946,-5.0923,-5.0946,-5.0939,-5.1007,-5.1001,-5.1235,-5.1263,-5.1041,-5.1043,-5.1045,0,-5.0901,-5.0946,-5.0931,-5.095,-5.0949,-5.098,-5.0994,-5.0948,-5.0966,-5.0967,-5.1002,-5.1027,-5.1045,-5.1097,-5.1074,-5.1094,-5.1072,-5.1152,-5.1074,-5.1086,-5.1072,-5.1069,-5.1073,-5.1168,-5.1171,-5.1173,-5.1175,0,-5.1096,-5.1076,-5.1099,-5.1117,-5.1136,-5.1147,-5.1154,-5.1173,-5.1124,-5.1147,-5.1177,-5.1191,-5.1219,-5.1244,-5.1259,-5.1253,-5.1206,-5.1199,-5.1216,-5.123,-5.1241,-5.1235,-5.0989,-5.1194,-5.1192,-5.1191,-5.119,-5.1189,-5.1242,-5.1279,-5.1274,-5.1301,-5.1301,-5.1309,-5.134,-5.1322,-5.1346,-5.1365,-5.1336,-5.1374,-5.137,-5.1384,-5.1384,-5.1413,-5.1378,-5.1402,-5.1408,-5.1414,-5.1424,-5.1237,-5.1415,-5.1415,-5.1414,-5.1414,-5.1413,0,-5.1433,-5.1426,-5.1452,-5.1463,-5.1484,-5.1438,-5.1443,-5.1464,-5.1498,-5.1498,-5.1517,-5.1551,-5.1576,-5.1555,-5.1575,-5.1602,-5.1581,-5.1609,-5.1606,-5.1605,-5.1454,-5.1438,-5.1626,-5.1626,-5.1626,-5.1625,-5.1625,-5.1625,-5.1535,-5.1594,-5.1575,-5.1634,-5.1626,-5.1662,-5.1669,-5.1675,-5.1675,-5.1717,-5.1737,-5.1723,-5.1714,-5.1733,-5.1754,-5.1747,-5.1757,-5.1792,-5.1778,-5.1637,-5.1616,-5.1596,-5.158,-5.1795,-5.1795,-5.1926,-5.1927,-5.1928]}]]